Weather History for KOLF - March, 2013

Change the Weather History Date:

Thursday, March 28, 2013

  Actual Average Record
Temperature  
Mean Temperature 21 °F -  
Max Temperature 34 °F 50 °F - ()
Min Temperature 7 °F 23 °F - ()
Degree Days  
Heating Degree Days 44    
Cooling Degree Days 0    
Moisture  
Dew Point 16 °F    
Average Humidity 83    
Maximum Humidity 89    
Minimum Humidity 77    
Precipitation  
Precipitation 0.00 in 0.02 in - ()
Month to date precipitation 0.50 0.40  
Year to date precipitation 0.70 0.92  
Sea Level Pressure  
Sea Level Pressure 30.24 in    
Wind  
Wind Speed 7 mph (ENE)    
Max Wind Speed 12 mph    
Max Gust Speed -    
Visibility 7 miles    
Events      
T = Trace of Precipitation, MM = Missing Value Source: NWS Daily Summary

Daily Weather History Graph

Daily Weather History Graph

Search for Another Location

Airport or City:

Trip Planner

Search our weather history database for the weather conditions in past years. The results will help you decide how hot, cold, wet, or windy it might be!

Date:

Astronomy

Mar. 28, 2013 Rise Set
Actual Time 6:48 AM MDT 7:27 PM MDT
Civil Twilight 6:16 AM MDT 7:58 PM MDT
Nautical Twilight 5:39 AM MDT 8:35 PM MDT
Astronomical Twilight 5:00 AM MDT 9:15 PM MDT
Moon 9:34 PM MDT (3/28) 7:08 AM MDT (3/28)
Length of Visible Light 13h 41m
Length of Day
12h 39m
Full, 98% of the Moon is Illuminated
Mar 28
Full
Apr 2
Last Quarter
Apr 10
New
Apr 18
First Quarter
Apr 25
Full

Hourly Weather History & Observations

Time (MDT) Temp. Windchill Dew Point Humidity Pressure Visibility Wind Dir Wind Speed Gust Speed Precip Events Conditions
12:53 AM 15.1 °F 6.4 °F 12.0 °F 88% 30.23 in 8.0 mi East 5.8 mph - N/A   Clear
1:53 AM 14.0 °F 6.5 °F 10.0 °F 84% 30.23 in 8.0 mi ENE 4.6 mph - N/A   Clear
2:53 AM 12.9 °F 5.2 °F 9.0 °F 84% 30.23 in 7.0 mi ENE 4.6 mph - N/A   Clear
3:53 AM 10.0 °F 3.6 °F 6.1 °F 84% 30.23 in 8.0 mi ENE 3.5 mph - N/A   Clear
4:53 AM 9.0 °F 2.4 °F 5.0 °F 84% 30.22 in 9.0 mi ENE 3.5 mph - N/A   Clear
5:53 AM 8.1 °F -0.5 °F 5.0 °F 87% 30.23 in 9.0 mi ENE 4.6 mph - N/A   Clear
6:53 AM 8.1 °F -0.5 °F 3.9 °F 83% 30.24 in 7.0 mi ENE 4.6 mph - N/A   Clear
7:53 AM 9.0 °F 0.6 °F 3.9 °F 80% 30.26 in 7.0 mi NE 4.6 mph - N/A   Clear
8:53 AM 12.9 °F 2.6 °F 10.0 °F 88% 30.27 in 5.0 mi East 6.9 mph - N/A   Clear
9:34 AM 15.8 °F 5.1 °F 12.2 °F 86% 30.16 in 4.0 mi East 8.1 mph - N/A   Partly Cloudy
9:53 AM 16.0 °F 5.3 °F 12.0 °F 84% 30.28 in 5.0 mi East 8.1 mph - N/A   Clear
10:53 AM 19.0 °F 10.0 °F 14.0 °F 81% 30.29 in 8.0 mi ENE 6.9 mph - N/A   Partly Cloudy
11:53 AM 24.1 °F 14.4 °F 18.0 °F 77% 30.27 in 8.0 mi ENE 9.2 mph - N/A   Clear
12:53 PM 27.0 °F 20.5 °F 21.0 °F 78% 30.27 in 8.0 mi East 5.8 mph - N/A   Clear
1:53 PM 30.0 °F 21.7 °F 24.1 °F 79% 30.25 in 8.0 mi East 9.2 mph - N/A   Clear
2:53 PM 32.0 °F 23.6 °F 26.1 °F 79% 30.24 in 6.0 mi East 10.4 mph - N/A   Haze
3:53 PM 33.1 °F 24.9 °F 27.0 °F 78% 30.23 in 6.0 mi East 10.4 mph - N/A   Haze
4:53 PM 34.0 °F 26.0 °F 28.0 °F 79% 30.22 in 6.0 mi East 10.4 mph - N/A   Haze
5:53 PM 33.1 °F 24.9 °F 27.0 °F 78% 30.21 in 6.0 mi East 10.4 mph - N/A   Haze
6:53 PM 30.9 °F 21.7 °F 26.1 °F 82% 30.22 in 5.0 mi ENE 11.5 mph - N/A   Haze
7:53 PM 27.0 °F 17.3 °F 23.0 °F 85% 30.23 in 6.0 mi ENE 10.4 mph - N/A   Clear
8:53 PM 25.0 °F 14.8 °F 21.0 °F 85% 30.24 in 6.0 mi East 10.4 mph - N/A   Clear
9:53 PM 24.1 °F 15.2 °F 21.0 °F 88% 30.23 in 6.0 mi ENE 8.1 mph - N/A   Clear
10:53 PM 23.0 °F 13.1 °F 19.9 °F 88% 30.22 in 6.0 mi East 9.2 mph - N/A   Clear
11:53 PM 21.9 °F 14.5 °F 19.0 °F 89% 30.21 in 6.0 mi ENE 5.8 mph - N/A   Clear